WNISAT-1

Last updated on Thu Nov 21 2024 00:03:39 GMT+0000 (Coordinated Universal Time)

1 39423U 13066H 24324.91837712 .00002848 00000+0 54363-3 0 9995 2 39423 97.6651 146.7037 0166637 239.8171 118.6433 14.56152447583095
UTC large
Height (km)
Speed (km/s)
/
Latitude / Longitude
Inclination (degrees)
Orbital Period (minutes)
Azimuth
Elevation
Range (km)
Doppler Factor

Next 0 passes for location: London (51.5072 / 0.1276)

Sorry there are no passes over London.